Total_Precipitation_Accumulation
0.19 0.20 0.22 0.27 0.42 0.44 0.34 0.31 0.43 0.39 0.42 0.33 0.24 0.26 0.25 0.21 0.17 0.15 0.13 0.11 0.07 0.05
0.28 0.31 0.43 0.46 0.37 0.36 0.27 0.16 0.22 0.30 0.28 0.27 0.37 0.40 0.36 0.24 0.16 0.12 0.06 0.04 0.03 0.02
0.41 0.42 0.41 0.33 0.43 0.38 0.37 0.38 0.45 0.45 0.46 0.49 0.47 0.35 0.24 0.13 0.07 0.05 0.03 0.03 0.03 0.03
0.47 0.62 0.69 0.62 0.60 0.58 0.55 0.55 0.57 0.56 0.46 0.31 0.18 0.09 0.03 0.03 0.04 0.05 0.05 0.05 0.07 0.06
0.72 1.03 1.56 1.61 1.25 1.47 1.48 1.11 0.81 0.59 0.30 0.09 0.06 0.03 0.02 0.04 0.05 0.07 0.12 0.12 0.09 0.06
0.68 1.07 1.00 0.70 0.52 0.42 0.50 0.46 0.25 0.13 0.10 0.08 0.06 0.04 0.04 0.05 0.10 0.14 0.10 0.08 0.07 0.04
0.33 0.39 0.35 0.26 0.18 0.17 0.15 0.12 0.07 0.06 0.08 0.06 0.05 0.05 0.09 0.12 0.10 0.10 0.10 0.05 0.01 0.00
0.23 0.17 0.14 0.09 0.06 0.09 0.12 0.16 0.10 0.09 0.07 0.07 0.09 0.15 0.14 0.13 0.13 0.05 0.01 0.00 0.00 0.00
0.10 0.10 0.10 0.06 0.04 0.05 0.08 0.08 0.08 0.10 0.12 0.15 0.17 0.19 0.14 0.06 0.01 0.00 0.00 0.00 0.00 0.00
0.06 0.08 0.06 0.07 0.05 0.06 0.07 0.04 0.06 0.11 0.16 0.17 0.14 0.08 0.03 0.01 0.00 0.01 0.00 0.00 0.00 0.00
0.05 0.05 0.07 0.06 0.05 0.05 0.06 0.11 0.16 0.17 0.14 0.06 0.02 0.04 0.05 0.04 0.01 0.01 0.00 0.00 0.00 0.00
0.05 0.05 0.04 0.04 0.09 0.17 0.21 0.18 0.12 0.04 0.01 0.02 0.02 0.05 0.03 0.02 0.00 0.00 0.00 0.00 0.00 0.00
0.02 0.04 0.09 0.19 0.21 0.15 0.07 0.03 0.03 0.04 0.04 0.05 0.02 0.01 0.00 0.00 0.00 0.00 0.00 0.00 0.00 0.00
0.08 0.14 0.16 0.13 0.06 0.03 0.02 0.02 0.01 0.00 0.00 0.00 0.00 0.00 0.00 0.00 0.00 0.00 0.00 0.00 0.00 0.00